Airfield :
LOGIN :

Register | Disclaimer

   EN    FR    IT 

 










Legend :    VFR   Marginal VFR   IFR   Intensive IFR   Very Intensive IFR
Visi :
Ceiling :
>= 8 km
>= 3000ft
5 to 8 km
1000 to 3000 ft
1500m to 5 km
500 to 1000 ft
800 to 1500m
200 to 500 ft
< 800m
< 200 ft
Symbols :   Thunderstorms  Fog  Heavy snow  Heavy precipitations  Wind > 20 kt
SIGMETs :     Misc.  Thunderstorms  Icing  Turbulence  Mountain Waves  Volcanic Ashes







- Airport Elevation : 604 ft
- IATA code : LCJ


EPLL - Lodz

CURRENT METAR :
  • 222000Z VRB02KT CAVOK 21/14 Q1011

EXPIRED METARs :
  • 221930Z VRB02KT CAVOK 20/14 Q1011
  • 221900Z 32002KT CAVOK 23/14 Q1011
  • 221830Z 32003KT CAVOK 24/13 Q1010
  • 221800Z VRB02KT CAVOK 26/12 Q1010
  • 221730Z 34002KT CAVOK 26/13 Q1010

TAF TAF EPLL
Valid from the 22 at 18:00 until the 23 at 18:00 UTC


221730Z 2218/2318 36008KT CAVOK
No reported NOTAMs for that airfield.



MET'MAP, your aeronautical weather chart ! - Copyright ORBIFLY December 2007 - Disclaimer

ORBIFLY MET'MAP TEAM :

Programming & Development : Alexandra Zaïnal
Concept & Development : Baudouin d'Aumeries
Co-Development & Prog : Marc-Olivier Méhu
Technical & hardware support : Manuel Goepfert

Contact : metmap@orbifly.com




SOURCES & CREDITS :

   NOAA